Regional Weather Roundup
Issued by NWS Newport/Morehead, NC

Current Version | Previous Version | Graphics & Text | Print | Product List | Glossary On
Versions: 1 2 3 4 5 6 7 8 9 10 11 12 13 14 15 16 17 18 19 20 21 22 23 24 25 26 27 28 29 30 31 32 33 34 35 36 37 38 39 40 41 42 43 44 45 46 47 48 49 50
000 ASUS42 KMHX 032224 RWRMHX WEATHER ROUNDUP FOR EASTERN NORTH CAROLINA NATIONAL WEATHER SERVICE NEWPORT/MOREHEAD CITY NC 500 PM EST TUE MAR 03 2015 NOTE: "FAIR" INDICATES FEW OR NO CLOUDS BELOW 12,000 FEET WITH NO SIGNIFICANT WEATHER AND/OR OBSTRUCTIONS TO VISIBILITY NCZ015>017-031-032-045>047-102-103-032300- NORTH COAST CITY SKY/WX TMP DP RH WIND PRES REMARKS EDENTON CLOUDY 42 34 73 CALM 30.18F ELIZABETH CITY CLOUDY 44 35 70 SE5 30.19F KITTY HAWK CLOUDY 43 37 79 CALM 30.18F MANTEO CLOUDY 45 37 76 SE3 30.21F $$ NCZ045>047-081-094-103-104-032300- CENTRAL COAST CITY SKY/WX TMP DP RH WIND PRES REMARKS FRISCO CLOUDY 50 45 83 S13 30.20F SWANQUARTER N/A 48 N/A N/A E6G12 30.15F $$ NCZ095-097-098-100-101-032300- SOUTHERN COAST CITY SKY/WX TMP DP RH WIND PRES REMARKS BEAUFORT CLOUDY 50 44 80 E5 30.19F CEDAR ISLAND N/A 43 N/A N/A E2 30.21F JACKSONVILLE CLOUDY 47 42 83 CALM 30.18F PINEY ISLAND N/A N/A N/A N/A MISG 30.19F WILMINGTON CLOUDY 47 44 90 NE6 30.17F FOG $$ NCZ011>013-027>030-043-044-078>080-089-090>093-098-032300- COASTAL PLAIN CITY SKY/WX TMP DP RH WIND PRES REMARKS AHOSKIE DRIZZLE 41 33 74 CALM 30.21S CLINTON DRIZZLE 40 40 100 CALM 30.21F ELIZABETHTOWN DRIZZLE 42 40 93 CALM 30.20S GOLDSBORO MIX PCPN 39 39 100 W3 30.19S FOG GREENVILLE DRIZZLE 41 37 87 CALM 30.21F HAVELOCK DRIZZLE 46 39 76 E3 30.20F KENANSVILLE CLOUDY 40 40 99 CALM 30.20F FOG KINSTON DRIZZLE 41 39 93 CALM 30.20F NEW BERN LGT RAIN 47 40 76 SE5 30.20F RICHLANDS CLOUDY 45 41 87 CALM 30.19F ROCKY MOUNT LGT RAIN 38 36 92 W5 30.22S FOG WASHINGTON DRIZZLE 42 38 83 CALM 30.20S WHITEVILLE CLOUDY 46 40 81 CALM 30.18F $$ AMZ130-135-150-152-154-156-158-170-250-252-270-ANZ085-086-088-633-658-670-032300- MARINE OBSERVATIONS STATION/POSITION TIME TEMP WIND PRES WAVE SWELL AIR SEA DIR/SP/G HT/PER HT/PER (UTC) (F) (DEG/KT/KT) (MB) (FT/S) (FT/S) CHESAPEAKE LIGHT 2200 36 220/ 7/ 7 1022.4 64 E VA BEACH 2150 56 61 160/ 17/ 21 1021.3 3/ 6 2/ 9 DUCK 2200 37 36 170/ 2/ 3 1021.3 2 E DUCK 2111 35 N/A 3/ 6 10 NE DUCK 2122 37 N/A 3/ 5 OREGON INLET 2200 43 40 90/ 4/ 5 1022.4 HATTERAS CG 2200 50 43 160/ 7/ 11 1022.6 CAPE LOOKOUT 2200 56 140/ 11/ 11 1021.9 BEAUFORT LAB 2200 49 44 40/ 1/ 2 1021.1 27 SE WRIGHTSVLE NOT AVBL 5 SE WRIGHTSVLE NOT AVBL 225 S CAPE HAT 2150 66 72 130/ 14/ 17 1024.4 7/ 9 5/ 9 41 SE CHARLESTON 2150 63 68 340/ 6/ 8 1020.5 6/ 8 5/ 8 $$

USA.gov is the U.S. government's official web portal to all federal, state and local government web resources and services.